Location: Contre
(49.7477°N, 2.0963°E)
Time: 12:07:30
(UTC+00:00)

Meteor 2-12 Rocket - Pass Details

Date: 05 August 2024
Orbit: 936 x 956 km, 82.5° (Epoch: 14 September)

Event Time Altitude Azimuth Distance (km) Brightness Sun altitude
Rises 02:40:54 0° 340° (NNW) 3,610 7.9 -14.3°
Reaches altitude 10° 02:43:52 10° 327° (NNW) 2,663 7.0 -14.0°
Maximum altitude 02:48:29 23° 277° (W) 1,875 5.7 -13.5°
Enters shadow 02:51:25 16° 240° (WSW) 2,225 5.8 -13.2°
